EW4221 Weather Reports


time (UTC)temp
C
wind
direction
speed
KPH
gust
KPH
rain 1hr
cm
rain 24hr
cm
rain mn
cm
humidity
%
barometer
mb
20260504201504 22 236 16.1 33.8 0.00 0.00 0.00 32 1005.0
20260504200003 22 236 11.3 24.1 0.00 0.00 0.00 31 1005.1
20260504194611 22 234 12.9 38.6 0.00 0.00 0.00 31 1005.4
20260504193058 22 238 9.7 27.4 0.00 0.00 0.00 35 1005.6
20260504191556 21 245 11.3 37.0 0.00 0.00 0.00 31 1005.8
20260504190117 21 202 16.1 32.2 0.00 0.00 0.00 34 1006.0
20260504184556 21 192 20.9 38.6 0.00 0.00 0.00 35 1006.2
20260504183049 20 176 22.5 38.6 0.00 0.00 0.00 36 1006.3
20260504181548 20 157 9.7 37.0 0.00 0.00 0.00 39 1006.4
20260504180115 20 263 12.9 40.2 0.00 0.00 0.00 39 1006.5
20260504174542 19 234 20.9 43.5 0.00 0.00 0.00 41 1006.6
20260504173048 20 244 16.1 46.7 0.00 0.00 0.00 40 1006.7
20260504171537 20 290 11.3 30.6 0.00 0.00 0.00 41 1006.9
20260504081547 7 223 8.0 16.1 0.00 0.00 0.00 58 1010.1
20260504050021 7 240 8.0 16.1 0.00 0.00 0.00 54 1010.7
20260504044519 7 212 4.8 17.7 0.00 0.00 0.00 55 1010.8
20260504043018 7 207 4.8 16.1 0.00 0.00 0.00 55 1010.8
20260504041515 7 200 3.2 9.7 0.00 0.00 0.00 55 1010.8
20260504040013 7 169 6.4 11.3 0.00 0.00 0.00 54 1010.9
20260504034516 8 215 3.2 8.0 0.00 0.00 0.00 53 1010.9
20260504033012 8 248 3.2 8.0 0.00 0.00 0.00 52 1010.9
20260504031512 8 200 3.2 12.9 0.00 0.00 0.00 51 1010.9
20260504030010 8 190 4.8 11.3 0.00 0.00 0.00 51 1010.9
20260504024510 8 223 8.0 16.1 0.00 0.00 0.00 50 1011.0
20260504023011 9 211 4.8 12.9 0.00 0.00 0.00 50 1011.1
20260504021509 10 219 4.8 11.3 0.00 0.00 0.00 48 1011.2
20260504020008 10 236 4.8 8.0 0.00 0.00 0.00 47 1011.2
20260504014516 10 230 3.2 6.4 0.00 0.00 0.00 46 1011.0
20260504013009 10 229 4.8 12.9 0.00 0.00 0.00 45 1011.0
20260504011509 11 208 6.4 14.5 0.00 0.00 0.00 44 1010.9
20260504010007 11 229 4.8 12.9 0.00 0.00 0.00 45 1010.8
20260504004506 11 229 3.2 14.5 0.00 0.00 0.00 43 1010.7
20260504003006 11 194 6.4 14.5 0.00 0.00 0.00 43 1010.5
20260504001505 11 238 8.0 16.1 0.00 0.00 0.00 42 1010.5
20260504000005 11 249 8.0 19.3 0.00 0.00 0.00 42 1010.4
20260503234507 11 233 4.8 19.3 0.00 0.00 0.00 42 1010.3
20260503233003 12 217 8.0 25.7 0.00 0.00 0.00 42 1010.3
20260503231503 12 255 4.8 16.1 0.00 0.00 0.00 41 1010.2
20260503230002 12 252 6.4 20.9 0.00 0.00 0.00 40 1010.2
20260503224601 12 291 8.0 27.4 0.00 0.00 0.00 40 1010.3
20260503223100 12 287 9.7 24.1 0.00 0.00 0.00 40 1010.3
20260503221559 12 240 6.4 17.7 0.00 0.00 0.00 40 1010.3
20260503220105 12 299 14.5 32.2 0.00 0.00 0.00 39 1010.4
20260503214559 12 247 12.9 25.7 0.00 0.00 0.00 40 1010.4
20260503213133 12 247 11.3 25.7 0.00 0.00 0.00 43 1010.4
20260503211620 12 308 6.4 27.4 0.00 0.00 0.00 41 1010.3
20260503210056 12 225 8.0 30.6 0.00 0.00 0.00 40 1010.3
20260503204610 12 296 11.3 32.2 0.00 0.00 0.00 40 1010.4
20260503203101 13 309 11.3 29.0 0.00 0.00 0.00 39 1010.4